C/2009 S3 ( Lemmon )

Japanese version
Home page
Updated on May 7, 2015

---------------------------------------------------------------------

* Profile

Discovery Date September 24, 2009
Magnitude 20.9 mag
Discoverer Mt. Lemmon survey

* Pictures

* Orbital Elements

Epoch 2011 Dec. 25.0 TT = JDT 2455920.5
T 2011 Dec. 11.31631 TT                                 MPC
q   6.4745191            (2000.0)            P               Q
z  -0.0002195      Peri.  129.76641     +0.72047635     +0.31822968
 +/-0.0000007      Node   225.13253     -0.09573042     +0.92562736
e   1.0014210      Incl.   60.38463     +0.68684024     -0.20480200
From 232 observations 2009 Sept. 24-2014 Jan. 27, mean residual 0".5.

* Magnitudes Graph

        m1 = 6.0 + 5 log d + 10.0 log r

---------------------------------------------------------------------

The orbital elements are published on M.P.E.C. 2014-C43.
The magnitudes graphs are made with Comet for Windows.

---------------------------------------------------------------------

Copyright(C) Seiichi Yoshida (comet@aerith.net). All rights reserved.